BEIDOU-2 IGSO-1

Last updated on Thu Aug 13 2026 00:02:58 GMT+0000 (Coordinated Universal Time)

1 36828U 10036A 26223.82707696 -.00000160 00000+0 00000+0 0 9993 2 36828 54.3066 162.4579 0058500 224.7824 336.4868 1.00256005 58655
UTC large
Height (km)
Speed (km/s)
/
Latitude / Longitude
Inclination (degrees)
Orbital Period (minutes)
Azimuth
Elevation
Range (km)
Doppler Factor

Next 0 passes for location: London (51.5072 / 0.1276)

No passes found over London.
BEIDOU-2 IGSO-1